Location: Astronomy Club of Akron Observatory
(40.9700°N, 81.5606°W)
Time: 02:27:54
(UTC-04:00)

ATLAS 2AS CENTAUR R/B - Visible Passes

Search period start: 22 September 2017 00:00
Search period end: 02 October 2017 00:00
Orbit: 906 x 1306 km, 63.7° (Epoch: 18 September)

Date Brightness Start Highest point End Pass type
(mag) Time Alt. Az. Time Alt. Az. Time Alt. Az.
22 Sep 4.3 20:48:50 10° NNW 20:55:18 25° NNE 20:58:54 18° ENE visible
22 Sep 3.2 22:39:34 10° NNW 22:46:19 65° NNW 22:46:19 65° NNW visible
23 Sep 5.1 00:32:07 10° WNW 00:33:45 15° WNW 00:33:45 15° WNW visible
23 Sep 4.6 20:04:03 10° NNW 20:09:42 20° NNE 20:15:09 10° ENE visible
23 Sep 3.1 21:54:45 10° NNW 22:02:39 56° NE 22:02:57 56° ENE visible
23 Sep 4.5 23:46:24 10° NW 23:50:23 27° WNW 23:50:23 27° WNW visible
24 Sep 3.6 21:09:59 10° NNW 21:17:29 40° NE 21:19:38 34° ENE visible
24 Sep 3.7 23:01:07 10° NW 23:07:04 46° WNW 23:07:04 46° WNW visible
25 Sep 4.0 20:25:16 10° NNW 20:32:09 30° NE 20:36:22 19° E visible
25 Sep 2.9 22:16:05 10° NW 22:23:48 80° W 22:23:48 80° W visible
26 Sep 5.2 00:09:34 10° WNW 00:11:15 13° W 00:11:15 13° W visible
26 Sep 4.4 19:40:31 10° NNW 19:46:39 23° NNE 19:52:32 10° E visible
26 Sep 2.9 21:31:13 10° NNW 21:39:14 70° NE 21:40:35 59° ESE visible
26 Sep 4.5 23:23:19 10° NW 23:28:02 25° W 23:28:02 25° W visible
27 Sep 3.3 20:46:25 10° NNW 20:54:11 49° NE 20:57:26 32° E visible
27 Sep 3.7 22:37:49 10° NW 22:44:53 42° WSW 22:44:53 42° WSW visible
28 Sep 3.8 20:01:41 10° NNW 20:08:57 35° NE 20:14:21 16° E visible
28 Sep 3.1 21:52:40 10° NW 22:00:31 65° WSW 22:01:49 56° SSW visible
28 Sep 5.3 23:48:13 10° W 23:49:16 11° W 23:49:16 11° W visible
29 Sep 2.9 21:07:42 10° NW 21:15:45 86° NE 21:18:49 40° SE visible
29 Sep 4.7 23:00:29 10° WNW 23:05:41 20° WSW 23:06:17 20° WSW visible
30 Sep 3.1 20:22:52 10° NNW 20:30:48 60° NE 20:35:55 22° SE visible
30 Sep 4.2 22:14:38 10° NW 22:21:21 32° WSW 22:23:24 28° SW visible
01 Oct 3.5 19:38:06 10° NNW 19:45:41 42° NE 19:52:45 10° ESE visible
01 Oct 3.6 21:29:18 10° NW 21:36:52 50° WSW 21:40:37 28° S visible
